Radiation Dose measured at exhaust stack monitor of Fukushima Daiichi Nuclear Power Station
Date,Time,Unit 5 6 shared exhaust cylinders,Wind Direction,Wind Velocity(m/s)
2024/05/10,00:00,3.5,west-northwest,5.9
2024/05/10,00:10,3.5,west-northwest,6.2
2024/05/10,00:20,3.7,west-northwest,6.4
2024/05/10,00:30,3.6,west-northwest,7.1
2024/05/10,00:40,3.6,west-northwest,6.9
2024/05/10,00:50,3.6,west-northwest,6.3
2024/05/10,01:00,3.6,west-northwest,5.3
2024/05/10,01:10,3.6,west-northwest,4.4
2024/05/10,01:20,3.6,west-northwest,4.4
2024/05/10,01:30,3.5,west-northwest,4.9
2024/05/10,01:40,3.9,west,3.5
2024/05/10,01:50,3.6,west,3.6
2024/05/10,02:00,3.6,west-southwest,2.3
2024/05/10,02:10,3.7,west-southwest,3.3
2024/05/10,02:20,3.5,west-southwest,4.9
2024/05/10,02:30,3.7,southwest,2.6
2024/05/10,02:40,3.8,southwest,1.7
2024/05/10,02:50,3.6,southwest,1.1
2024/05/10,03:00,3.6,southwest,1.5
2024/05/10,03:10,3.7,southwest,1.5
2024/05/10,03:20,3.6,southwest,1.1
2024/05/10,03:30,3.5,southwest,0.9
2024/05/10,03:40,3.7,southwest,1.2
2024/05/10,03:50,3.5,south-southwest,1.7
2024/05/10,04:00,3.5,west-southwest,1.2
2024/05/10,04:10,3.7,west,1.7
2024/05/10,04:20,3.6,south-southwest,1.7
2024/05/10,04:30,3.6,south-southwest,1.7
2024/05/10,04:40,3.4,south-southwest,1.1
2024/05/10,04:50,3.6,west-southwest,2.0
2024/05/10,05:00,3.7,west,2.6
2024/05/10,05:10,3.6,west,2.0
2024/05/10,05:20,3.6,west,0.6
2024/05/10,05:30,3.5,northwest,0.6
2024/05/10,05:40,3.6,-,CALM
2024/05/10,05:50,3.7,north,0.6
2024/05/10,06:00,3.8,north,1.2
2024/05/10,06:10,3.6,north-northwest,2.0
2024/05/10,06:20,3.6,north-northwest,2.0
2024/05/10,06:30,3.7,west-northwest,2.3
2024/05/10,06:40,3.7,northwest,1.9
2024/05/10,06:50,3.5,north-northwest,1.9
2024/05/10,07:00,3.6,north-northwest,2.3
2024/05/10,07:10,3.6,northwest,2.8
2024/05/10,07:20,3.7,north-northwest,1.2
2024/05/10,07:30,3.5,northwest,2.3
2024/05/10,07:40,3.5,northwest,1.5
2024/05/10,07:50,3.5,southwest,1.2
2024/05/10,08:00,3.7,south-southwest,1.4
2024/05/10,08:10,3.6,south-southeast,1.4
2024/05/10,08:20,3.7,south-southeast,2.0
2024/05/10,08:30,3.7,southeast,3.0
2024/05/10,08:40,3.5,southeast,3.9
2024/05/10,08:50,3.6,south-southeast,3.6
2024/05/10,09:00,3.6,southeast,3.6
2024/05/10,09:10,3.7,south-southeast,3.4
2024/05/10,09:20,3.6,south-southeast,4.0
2024/05/10,09:30,3.6,south-southeast,5.2
2024/05/10,09:40,3.5,south-southeast,5.9
2024/05/10,09:50,3.6,south-southeast,5.5
2024/05/10,10:00,3.7,south-southeast,5.8
2024/05/10,10:10,3.6,south-southeast,6.1
2024/05/10,10:20,3.8,south-southeast,6.5
2024/05/10,10:30,3.7,south-southeast,7.3
2024/05/10,10:40,3.6,south-southeast,6.6
2024/05/10,10:50,3.7,south-southeast,6.7
2024/05/10,11:00,3.7,south-southeast,7.6
2024/05/10,11:10,3.5,south-southeast,8.0
2024/05/10,11:20,3.7,south-southeast,7.7
2024/05/10,11:30,3.8,south-southeast,8.9
2024/05/10,11:40,3.8,south-southeast,6.2
2024/05/10,11:50,3.5,south-southeast,10.5
2024/05/10,12:00,3.6,south-southeast,11.0
2024/05/10,12:10,3.6,south-southeast,12.0
2024/05/10,12:20,3.7,south-southeast,11.8
2024/05/10,12:30,3.7,south-southeast,11.9
2024/05/10,12:40,3.6,south-southeast,10.2
2024/05/10,12:50,3.6,south-southeast,9.0
2024/05/10,13:00,3.7,south-southeast,8.9
2024/05/10,13:10,3.6,south-southeast,8.8
2024/05/10,13:20,3.8,south-southeast,10.2
2024/05/10,13:30,3.7,south-southeast,10.7
2024/05/10,13:40,3.5,south-southeast,11.8
2024/05/10,13:50,3.7,south-southeast,9.9
2024/05/10,14:00,3.5,south-southeast,12.4
2024/05/10,14:10,3.6,south-southeast,11.8
2024/05/10,14:20,3.5,south-southeast,12.5
2024/05/10,14:30,3.6,south-southeast,10.5
2024/05/10,14:40,3.7,south-southeast,9.1
2024/05/10,14:50,3.7,south,6.0
2024/05/10,15:00,3.7,south,8.1
2024/05/10,15:10,3.6,south,8.7
2024/05/10,15:20,3.6,south-southeast,9.6
2024/05/10,15:30,3.7,south,8.7
2024/05/10,15:40,3.6,south,8.5
2024/05/10,15:50,3.6,south,7.9
2024/05/10,16:00,3.7,south,8.5
2024/05/10,16:10,3.6,south,8.2
2024/05/10,16:20,3.6,south,9.4
2024/05/10,16:30,3.6,south,9.3
2024/05/10,16:40,3.7,south,7.7
2024/05/10,16:50,3.7,south,7.3
2024/05/10,17:00,3.7,south,7.5
2024/05/10,17:10,3.7,south,8.5
2024/05/10,17:20,3.6,south,8.4
2024/05/10,17:30,3.7,south,8.2
2024/05/10,17:40,3.7,south,7.4
2024/05/10,17:50,3.8,south-southwest,7.8
2024/05/10,18:00,3.7,south,9.4
2024/05/10,18:10,3.6,south-southwest,8.5
2024/05/10,18:20,3.6,south-southwest,8.7
2024/05/10,18:30,3.6,south-southwest,9.0
2024/05/10,18:40,3.6,south-southwest,7.9
2024/05/10,18:50,3.6,south-southwest,8.2
2024/05/10,19:00,3.6,south-southwest,7.3
2024/05/10,19:10,3.6,south-southwest,7.1
2024/05/10,19:20,3.5,south-southwest,5.7
2024/05/10,19:30,3.6,south-southwest,4.9
2024/05/10,19:40,3.4,south-southwest,4.1
2024/05/10,19:50,3.8,south,3.6
2024/05/10,20:00,3.7,south,3.3
2024/05/10,20:10,3.6,south-southwest,2.8
2024/05/10,20:20,3.7,south,3.4
2024/05/10,20:30,3.5,south,3.8
2024/05/10,20:40,3.7,south-southwest,4.4
2024/05/10,20:50,3.6,south,6.6
2024/05/10,21:00,3.6,south,6.3
2024/05/10,21:10,3.6,south,6.8
2024/05/10,21:20,3.6,south,7.3
2024/05/10,21:30,3.5,south,7.2
2024/05/10,21:40,3.7,south,6.6
2024/05/10,21:50,3.7,south,6.1
2024/05/10,22:00,3.6,south,6.0
2024/05/10,22:10,3.6,south,5.9
2024/05/10,22:20,3.4,south,6.9
2024/05/10,22:30,3.8,south-southwest,5.7
2024/05/10,22:40,3.5,south-southwest,6.3
2024/05/10,22:50,3.6,south,6.0
2024/05/10,23:00,3.6,south,5.8
2024/05/10,23:10,3.6,south-southwest,5.1
2024/05/10,23:20,3.7,south,6.0
2024/05/10,23:30,3.6,south-southwest,5.2
2024/05/10,23:40,3.6,south-southwest,5.1
2024/05/10,23:50,3.8,south,5.2
